�������l�o���
Date,Time,MP-1(��Sv/h),MP-2(��Sv/h),MP-3(��Sv/h),MP-4(��Sv/h),MP-5(��Sv/h),MP-6(��Sv/h),MP-7(��Sv/h),����,����(m/s),���J
2022/05/29,00:00,0.149,0.139,0.218,0.213,0.214,0.120,0.077,�쐼,3.5,��
2022/05/29,00:10,0.149,0.139,0.216,0.211,0.216,0.119,0.077,��,4.7,��
2022/05/29,00:20,0.150,0.138,0.218,0.212,0.214,0.120,0.078,���쐼,4.9,��
2022/05/29,00:30,0.149,0.139,0.217,0.212,0.216,0.120,0.077,���쐼,4.6,��
2022/05/29,00:40,0.150,0.139,0.217,0.213,0.214,0.119,0.076,���쐼,4.6,��
2022/05/29,00:50,0.150,0.138,0.217,0.212,0.215,0.119,0.077,���쐼,4.8,��
2022/05/29,01:00,0.149,0.139,0.217,0.211,0.215,0.119,0.077,���쐼,6.9,��
2022/05/29,01:10,0.149,0.139,0.216,0.212,0.215,0.120,0.076,��,6.8,��
2022/05/29,01:20,0.151,0.139,0.217,0.212,0.215,0.120,0.077,��,6.9,��
2022/05/29,01:30,0.149,0.138,0.219,0.214,0.215,0.120,0.077,��,9.0,��
2022/05/29,01:40,0.150,0.139,0.217,0.212,0.215,0.119,0.077,��,9.2,��
2022/05/29,01:50,0.149,0.137,0.218,0.214,0.215,0.121,0.076,��,7.6,��
2022/05/29,02:00,0.151,0.139,0.217,0.211,0.215,0.121,0.077,��,6.7,��
2022/05/29,02:10,0.148,0.138,0.218,0.213,0.215,0.120,0.077,��,4.0,��
2022/05/29,02:20,0.150,0.139,0.217,0.211,0.215,0.120,0.078,��,5.5,��
2022/05/29,02:30,0.149,0.138,0.216,0.213,0.215,0.120,0.076,��,5.9,��
2022/05/29,02:40,0.150,0.139,0.215,0.210,0.214,0.120,0.076,���쐼,3.0,��
2022/05/29,02:50,0.149,0.139,0.218,0.213,0.215,0.120,0.076,���쐼,3.5,��
2022/05/29,03:00,0.150,0.140,0.217,0.211,0.215,0.119,0.077,�쐼,4.0,��
2022/05/29,03:10,0.150,0.139,0.217,0.212,0.215,0.119,0.077,�쐼,4.4,��
2022/05/29,03:20,0.150,0.138,0.217,0.212,0.215,0.119,0.077,�쐼,4.9,��
2022/05/29,03:30,0.150,0.139,0.217,0.212,0.214,0.120,0.077,���쐼,4.1,��
2022/05/29,03:40,0.150,0.138,0.218,0.211,0.216,0.121,0.076,���쐼,4.2,��
2022/05/29,03:50,0.150,0.139,0.216,0.214,0.214,0.119,0.077,���쐼,5.7,��
2022/05/29,04:00,0.150,0.139,0.218,0.211,0.216,0.119,0.077,�쐼,4.7,��
2022/05/29,04:10,0.149,0.139,0.216,0.212,0.214,0.120,0.077,�쐼,3.6,��
2022/05/29,04:20,0.150,0.139,0.218,0.212,0.216,0.120,0.077,�쐼,5.1,��
2022/05/29,04:30,0.149,0.139,0.217,0.212,0.215,0.120,0.076,���쐼,5.1,��
2022/05/29,04:40,0.150,0.140,0.218,0.212,0.216,0.120,0.076,�쐼,3.1,��
2022/05/29,04:50,0.149,0.139,0.217,0.211,0.214,0.120,0.077,�쓌,2.8,��
2022/05/29,05:00,0.151,0.139,0.217,0.214,0.216,0.120,0.077,��쓌,3.4,��
2022/05/29,05:10,0.150,0.140,0.218,0.211,0.214,0.120,0.077,��쓌,3.0,��
2022/05/29,05:20,0.149,0.139,0.217,0.214,0.216,0.120,0.076,�쓌,4.0,��
2022/05/29,05:30,0.149,0.139,0.218,0.212,0.213,0.119,0.077,��,3.1,��
2022/05/29,05:40,0.150,0.138,0.217,0.213,0.217,0.120,0.077,��,2.9,��
2022/05/29,05:50,0.149,0.138,0.219,0.213,0.215,0.121,0.077,��쐼,3.2,�L
2022/05/29,06:00,0.150,0.140,0.217,0.212,0.212,0.120,0.076,��쐼,3.2,��
2022/05/29,06:10,0.149,0.138,0.218,0.211,0.216,0.121,0.077,��쐼,3.8,��
2022/05/29,06:20,0.150,0.138,0.218,0.213,0.212,0.120,0.076,�쐼,3.7,��
2022/05/29,06:30,0.149,0.138,0.218,0.212,0.214,0.120,0.076,��쐼,4.5,��
2022/05/29,06:40,0.150,0.138,0.217,0.213,0.214,0.119,0.077,��쐼,2.3,��
2022/05/29,06:50,0.149,0.137,0.218,0.211,0.213,0.119,0.077,�쐼,3.4,��
2022/05/29,07:00,0.151,0.139,0.215,0.213,0.215,0.120,0.077,�쐼,3.0,��
2022/05/29,07:10,0.150,0.138,0.216,0.213,0.214,0.119,0.076,��쐼,2.7,��
2022/05/29,07:20,0.150,0.138,0.217,0.211,0.215,0.120,0.076,��쐼,2.5,��
2022/05/29,07:30,0.150,0.140,0.216,0.211,0.215,0.118,0.076,��쓌,1.9,��
2022/05/29,07:40,0.149,0.139,0.215,0.213,0.212,0.121,0.076,��,1.5,��
2022/05/29,07:50,0.148,0.138,0.215,0.212,0.215,0.120,0.076,��쐼,2.6,��
2022/05/29,08:00,0.149,0.138,0.215,0.210,0.215,0.119,0.077,��쓌,3.1,��
2022/05/29,08:10,0.149,0.137,0.215,0.210,0.214,0.119,0.076,��쐼,1.1,��
2022/05/29,08:20,0.147,0.137,0.215,0.209,0.213,0.120,0.076,��,4.7,��
2022/05/29,08:30,0.150,0.138,0.216,0.212,0.212,0.119,0.076,��,4.1,��
2022/05/29,08:40,0.150,0.140,0.219,0.212,0.214,0.119,0.076,���쐼,2.6,��
2022/05/29,08:50,0.149,0.138,0.218,0.212,0.216,0.119,0.076,���쐼,1.5,��
2022/05/29,09:00,0.147,0.138,0.217,0.211,0.215,0.120,0.076,���쐼,3.5,��
2022/05/29,09:10,0.151,0.139,0.214,0.210,0.213,0.119,0.077,���쐼,4.5,��
2022/05/29,09:20,0.150,0.140,0.216,0.210,0.212,0.119,0.076,��,5.4,��
2022/05/29,09:30,0.149,0.140,0.217,0.213,0.211,0.120,0.076,��,3.7,��
2022/05/29,09:40,0.148,0.140,0.221,0.213,0.212,0.119,0.077,���쐼,2.0,��
2022/05/29,09:50,0.148,0.138,0.217,0.211,0.211,0.121,0.076,��쓌,3.2,��
2022/05/29,10:00,0.148,0.138,0.218,0.212,0.214,0.119,0.076,���k��,2.5,��
2022/05/29,10:10,0.148,0.138,0.217,0.211,0.213,0.119,0.076,���k��,4.5,��
2022/05/29,10:20,0.150,0.138,0.217,0.212,0.214,0.119,0.075,���k��,7.6,��
2022/05/29,10:30,0.151,0.139,0.217,0.212,0.214,0.120,0.077,���k��,7.0,��
2022/05/29,10:40,0.151,0.139,0.217,0.211,0.214,0.120,0.076,��,7.1,��
2022/05/29,10:50,0.149,0.139,0.218,0.212,0.213,0.121,0.077,��,3.9,��
2022/05/29,11:00,0.150,0.139,0.218,0.213,0.214,0.120,0.076,��,3.0,��
2022/05/29,11:10,0.150,0.140,0.218,0.214,0.215,0.120,0.076,���k��,5.0,��
2022/05/29,11:20,0.149,0.140,0.219,0.213,0.216,0.121,0.077,���k��,5.4,��
2022/05/29,11:30,0.149,0.140,0.218,0.213,0.216,0.120,0.076,��,2.2,��
2022/05/29,11:40,0.150,0.140,0.219,0.213,0.215,0.120,0.077,��,1.4,��
2022/05/29,11:50,0.148,0.139,0.219,0.213,0.215,0.119,0.077,���k��,2.3,��
2022/05/29,12:00,0.150,0.140,0.219,0.213,0.215,0.120,0.077,���k��,1.7,��
2022/05/29,12:10,0.148,0.140,0.220,0.212,0.216,0.121,0.076,��,3.7,��
2022/05/29,12:20,0.150,0.140,0.219,0.214,0.216,0.120,0.076,���k��,4.5,��
2022/05/29,12:30,0.150,0.139,0.219,0.213,0.215,0.120,0.076,��,8.8,��
2022/05/29,12:40,0.150,0.140,0.219,0.214,0.215,0.121,0.077,��,8.2,��
2022/05/29,12:50,0.150,0.140,0.220,0.213,0.216,0.121,0.077,��,8.8,��
2022/05/29,13:00,0.150,0.142,0.220,0.214,0.215,0.121,0.077,��,6.9,��
2022/05/29,13:10,0.151,0.141,0.219,0.215,0.216,0.121,0.078,��,9.6,��
2022/05/29,13:20,0.150,0.140,0.219,0.215,0.216,0.120,0.078,���k��,8.1,��
2022/05/29,13:30,0.151,0.140,0.220,0.214,0.217,0.121,0.078,���k��,10.1,��
2022/05/29,13:40,0.152,0.140,0.219,0.215,0.216,0.121,0.078,���k��,6.6,��
2022/05/29,13:50,0.151,0.140,0.220,0.215,0.215,0.122,0.078,��,8.5,��
2022/05/29,14:00,0.151,0.141,0.219,0.215,0.216,0.121,0.077,���k��,5.4,��
2022/05/29,14:10,0.150,0.140,0.220,0.216,0.216,0.122,0.078,��,5.3,��
2022/05/29,14:20,0.151,0.141,0.221,0.217,0.217,0.121,0.077,��,6.5,��
2022/05/29,14:30,0.150,0.141,0.220,0.217,0.217,0.121,0.078,���k��,9.5,��
2022/05/29,14:40,0.151,0.141,0.219,0.216,0.217,0.122,0.077,���k��,7.5,��
2022/05/29,14:50,0.151,0.141,0.219,0.214,0.216,0.122,0.077,���k��,8.8,��
2022/05/29,15:00,0.151,0.141,0.219,0.215,0.217,0.121,0.078,���k��,7.5,��
2022/05/29,15:10,0.152,0.142,0.220,0.215,0.216,0.121,0.077,���k��,7.6,��
2022/05/29,15:20,0.151,0.141,0.220,0.215,0.216,0.121,0.077,���k��,7.0,��
2022/05/29,15:30,0.151,0.140,0.219,0.213,0.216,0.120,0.077,���k��,8.4,��
2022/05/29,15:40,0.151,0.141,0.219,0.213,0.215,0.121,0.077,���k��,7.8,��
2022/05/29,15:50,0.151,0.139,0.219,0.213,0.218,0.121,0.077,���k��,5.9,��
2022/05/29,16:00,0.151,0.140,0.220,0.214,0.216,0.121,0.077,���k��,6.9,��
2022/05/29,16:10,0.151,0.140,0.219,0.214,0.216,0.121,0.077,���k��,8.6,��
2022/05/29,16:20,0.152,0.141,0.219,0.214,0.216,0.121,0.076,��,9.2,��
2022/05/29,16:30,0.151,0.140,0.219,0.214,0.216,0.121,0.077,��,7.3,��
2022/05/29,16:40,0.150,0.140,0.218,0.215,0.215,0.121,0.077,���k��,7.2,��
2022/05/29,16:50,0.151,0.140,0.220,0.214,0.215,0.120,0.077,���k��,6.8,��
2022/05/29,17:00,0.150,0.140,0.218,0.214,0.215,0.121,0.077,���k��,6.5,��
2022/05/29,17:10,0.151,0.140,0.219,0.213,0.215,0.120,0.076,���k��,5.4,��
2022/05/29,17:20,0.150,0.140,0.221,0.214,0.215,0.120,0.077,���k��,3.9,��
2022/05/29,17:30,0.150,0.140,0.221,0.217,0.216,0.120,0.078,�k��,0.8,��
2022/05/29,17:40,0.150,0.141,0.219,0.217,0.215,0.121,0.078,-,CALM,��
2022/05/29,17:50,0.151,0.142,0.219,0.214,0.214,0.121,0.077,�k��,1.2,��
2022/05/29,18:00,0.152,0.141,0.218,0.215,0.216,0.120,0.078,���k��,2.1,��
2022/05/29,18:10,0.151,0.140,0.222,0.217,0.214,0.121,0.078,��,1.3,��
2022/05/29,18:20,0.150,0.141,0.223,0.217,0.214,0.121,0.078,���k��,2.7,��
2022/05/29,18:30,0.151,0.140,0.219,0.215,0.214,0.121,0.077,��,2.3,��
2022/05/29,18:40,0.153,0.140,0.222,0.215,0.218,0.121,0.078,��,3.1,��
2022/05/29,18:50,0.152,0.141,0.223,0.217,0.217,0.120,0.077,�k��,1.8,��
2022/05/29,19:00,0.149,0.140,0.219,0.214,0.215,0.120,0.078,�k,0.9,��
2022/05/29,19:10,0.153,0.142,0.222,0.216,0.218,0.121,0.077,�k�k��,1.4,��
2022/05/29,19:20,0.152,0.141,0.221,0.217,0.217,0.120,0.076,�k�k��,1.6,��
2022/05/29,19:30,0.151,0.141,0.220,0.215,0.215,0.121,0.077,��,2.4,��
2022/05/29,19:40,0.152,0.142,0.222,0.218,0.220,0.121,0.077,��,1.3,��
2022/05/29,19:50,0.152,0.141,0.220,0.215,0.219,0.121,0.077,�k��,1.2,��
2022/05/29,20:00,0.152,0.141,0.224,0.216,0.215,0.121,0.077,�k��,1.4,��
2022/05/29,20:10,0.152,0.141,0.221,0.216,0.218,0.121,0.078,-,CALM,��
2022/05/29,20:20,0.151,0.141,0.222,0.216,0.216,0.122,0.078,�k�k��,1.0,��
2022/05/29,20:30,0.153,0.141,0.221,0.217,0.216,0.122,0.077,�k��,2.3,��
2022/05/29,20:40,0.151,0.142,0.222,0.215,0.218,0.121,0.078,�k��,3.1,��
2022/05/29,20:50,0.153,0.141,0.221,0.217,0.215,0.121,0.077,�k��,4.5,��
2022/05/29,21:00,0.152,0.141,0.220,0.216,0.218,0.121,0.077,�k��,4.1,��
2022/05/29,21:10,0.152,0.141,0.222,0.215,0.217,0.121,0.078,�k��,4.7,��
2022/05/29,21:20,0.152,0.142,0.222,0.216,0.216,0.121,0.078,�k��,4.5,��
2022/05/29,21:30,0.152,0.141,0.222,0.216,0.218,0.121,0.078,�k��,4.7,��
2022/05/29,21:40,0.153,0.141,0.222,0.217,0.216,0.121,0.078,�k�k��,2.6,��
2022/05/29,21:50,0.151,0.141,0.223,0.217,0.218,0.122,0.077,�k�k��,2.7,��
2022/05/29,22:00,0.153,0.141,0.221,0.216,0.216,0.121,0.078,�k,3.4,��
2022/05/29,22:10,0.152,0.141,0.222,0.217,0.218,0.121,0.077,�k,3.7,��
2022/05/29,22:20,0.153,0.142,0.222,0.215,0.216,0.121,0.078,�k��,4.1,��
2022/05/29,22:30,0.151,0.141,0.222,0.216,0.218,0.122,0.078,�k�k��,3.0,��
2022/05/29,22:40,0.153,0.141,0.221,0.216,0.217,0.122,0.078,�k�k��,3.5,��
2022/05/29,22:50,0.152,0.141,0.222,0.218,0.217,0.123,0.077,�k,3.6,��
2022/05/29,23:00,0.152,0.141,0.222,0.216,0.218,0.122,0.079,�k�k��,3.5,��
2022/05/29,23:10,0.153,0.142,0.222,0.216,0.217,0.122,0.078,�k�k��,3.1,��
2022/05/29,23:20,0.152,0.141,0.221,0.216,0.217,0.121,0.078,�k�k��,3.6,��
2022/05/29,23:30,0.153,0.141,0.221,0.217,0.217,0.122,0.077,�k�k��,4.1,��
2022/05/29,23:40,0.152,0.141,0.222,0.216,0.217,0.122,0.077,�k�k��,3.5,��
2022/05/29,23:50,0.152,0.141,0.222,0.218,0.216,0.121,0.078,�k�k��,3.7,��
